| time (UTC) | temp C | wind direction | speed KPH | gust KPH | rain 1hr cm | rain 24hr cm | rain mn cm | humidity % | barometer mb |
| 20260906051548 | 13 | 313 | 0.0 | 0.0 | 0.00 | 0.48 | 0.00 | 99 | 1024.5 |
| 20260906050046 | 13 | 313 | 0.0 | 0.0 | 0.00 | 0.48 | 0.00 | 98 | 1024.4 |
| 20260906044542 | 14 | 313 | 0.0 | 0.0 | 0.00 | 0.48 | 0.00 | 99 | 1024.3 |
| 20260906043040 | 14 | 313 | 0.0 | 0.0 | 0.00 | 0.48 | 0.00 | 99 | 1024.1 |
| 20260906041539 | 14 | 313 | 0.0 | 0.0 | 0.00 | 0.48 | 0.00 | 99 | 1024.0 |
| 20260906040038 | 14 | 313 | 0.0 | 0.0 | 0.00 | 0.48 | 0.00 | 99 | 1024.0 |
| 20260906034552 | 14 | 313 | 0.0 | 0.0 | 0.00 | 0.48 | 0.00 | 99 | 1023.8 |
| 20260906033038 | 14 | 313 | 0.0 | 0.0 | 0.00 | 0.48 | 0.00 | 99 | 1023.7 |
| 20260906031534 | 15 | 313 | 0.0 | 0.0 | 0.00 | 0.48 | 0.00 | 99 | 1023.6 |
| 20260906030031 | 15 | 313 | 0.0 | 0.0 | 0.00 | 0.48 | 0.00 | 98 | 1023.5 |
| 20260906024531 | 15 | 313 | 0.0 | 0.0 | 0.00 | 0.48 | 0.00 | 98 | 1023.4 |
| 20260906023030 | 15 | 313 | 0.0 | 0.0 | 0.00 | 0.48 | 0.00 | 98 | 1023.4 |
| 20260906021532 | 15 | 313 | 0.0 | 0.0 | 0.00 | 0.48 | 0.00 | 98 | 1023.2 |
| 20260906020023 | 15 | 313 | 0.0 | 0.0 | 0.00 | 0.48 | 0.00 | 98 | 1022.9 |
| 20260906014521 | 15 | 312 | 0.0 | 0.0 | 0.00 | 0.48 | 0.00 | 99 | 1022.8 |
| 20260906013020 | 16 | 313 | 0.0 | 0.0 | 0.00 | 0.48 | 0.00 | 98 | 1022.7 |
| 20260906011518 | 16 | 313 | 0.0 | 0.0 | 0.00 | 0.48 | 0.00 | 99 | 1022.8 |
| 20260906010017 | 16 | 313 | 0.0 | 0.0 | 0.00 | 0.48 | 0.00 | 99 | 1022.8 |
| 20260906004517 | 16 | 313 | 0.0 | 0.0 | 0.00 | 0.48 | 0.00 | 99 | 1022.8 |
| 20260906003015 | 16 | 313 | 0.0 | 0.0 | 0.00 | 0.48 | 0.00 | 98 | 1022.7 |
| 20260906001523 | 16 | 313 | 0.0 | 0.0 | 0.00 | 0.48 | 0.00 | 98 | 1022.6 |
| 20260906000012 | 16 | 313 | 0.0 | 0.0 | 0.00 | 0.48 | 0.00 | 98 | 1022.5 |
| 20260905234510 | 16 | 313 | 0.0 | 0.0 | 0.00 | 0.48 | 0.00 | 98 | 1022.4 |
| 20260905233008 | 16 | 313 | 0.0 | 0.0 | 0.00 | 0.48 | 0.00 | 98 | 1022.4 |
| 20260905231512 | 17 | 313 | 0.0 | 0.0 | 0.00 | 0.48 | 0.00 | 98 | 1022.4 |
| 20260905230005 | 17 | 313 | 0.0 | 0.0 | 0.00 | 0.48 | 0.00 | 99 | 1022.3 |
| 20260905224504 | 17 | 313 | 0.0 | 0.0 | 0.00 | 0.48 | 0.00 | 98 | 1022.2 |
| 20260905223004 | 17 | 313 | 0.0 | 0.0 | 0.00 | 0.48 | 0.00 | 98 | 1022.1 |
| 20260905221602 | 17 | 313 | 0.0 | 0.0 | 0.00 | 0.48 | 0.00 | 98 | 1021.9 |
| 20260905220059 | 17 | 313 | 0.0 | 0.0 | 0.00 | 0.48 | 0.00 | 98 | 1022.0 |
| 20260905214556 | 17 | 313 | 0.0 | 0.0 | 0.00 | 0.48 | 0.48 | 98 | 1021.9 |
| 20260905213055 | 17 | 313 | 0.0 | 0.0 | 0.00 | 0.48 | 0.48 | 98 | 1021.9 |
| 20260905211554 | 18 | 313 | 0.0 | 0.0 | 0.00 | 0.48 | 0.48 | 99 | 1021.5 |
| 20260905210110 | 18 | 313 | 0.0 | 0.0 | 0.00 | 0.48 | 0.48 | 98 | 1021.6 |
| 20260905204553 | 18 | 312 | 0.0 | 0.0 | 0.00 | 0.48 | 0.48 | 98 | 1021.7 |
| 20260905203052 | 18 | 312 | 0.0 | 0.0 | 0.00 | 0.48 | 0.48 | 98 | 1021.5 |
| 20260905201551 | 18 | 313 | 0.0 | 0.0 | 0.00 | 0.48 | 0.48 | 98 | 1021.4 |
| 20260905200112 | 18 | 313 | 0.0 | 0.0 | 0.00 | 0.48 | 0.48 | 98 | 1021.4 |
| 20260905194548 | 18 | 313 | 0.0 | 0.0 | 0.00 | 0.48 | 0.48 | 99 | 1021.2 |
| 20260905193047 | 18 | 312 | 0.0 | 0.0 | 0.00 | 0.48 | 0.48 | 99 | 1021.1 |
| 20260905191546 | 18 | 313 | 0.0 | 0.0 | 0.00 | 0.48 | 0.48 | 98 | 1020.9 |
| 20260905190044 | 18 | 313 | 0.0 | 0.0 | 0.00 | 0.48 | 0.48 | 98 | 1020.6 |
| 20260905184549 | 18 | 312 | 0.0 | 0.0 | 0.00 | 0.48 | 0.48 | 98 | 1020.5 |
| 20260905183043 | 18 | 312 | 0.0 | 0.0 | 0.00 | 0.48 | 0.48 | 98 | 1020.4 |
| 20260905181545 | 18 | 313 | 0.0 | 0.0 | 0.00 | 0.48 | 0.48 | 98 | 1020.1 |
| 20260905180041 | 19 | 313 | 0.0 | 0.0 | 0.00 | 0.48 | 0.48 | 98 | 1020.0 |
| 20260905174534 | 19 | 312 | 0.0 | 0.0 | 0.00 | 0.48 | 0.48 | 98 | 1019.7 |
| 20260905173042 | 19 | 312 | 0.0 | 0.0 | 0.00 | 0.48 | 0.48 | 97 | 1019.6 |
| 20260905171533 | 19 | 312 | 0.0 | 0.0 | 0.00 | 0.48 | 0.48 | 97 | 1019.3 |
| 20260905170029 | 20 | 313 | 0.0 | 0.0 | 0.00 | 0.48 | 0.48 | 97 | 1019.0 |
| 20260905164529 | 20 | 312 | 0.0 | 0.0 | 0.00 | 0.48 | 0.48 | 98 | 1018.8 |
| 20260905163027 | 20 | 313 | 0.0 | 0.0 | 0.03 | 0.48 | 0.48 | 97 | 1018.6 |
| 20260905161524 | 20 | 312 | 0.0 | 0.0 | 0.05 | 0.48 | 0.48 | 97 | 1018.7 |
| 20260905160024 | 20 | 313 | 0.0 | 0.0 | 0.05 | 0.48 | 0.48 | 97 | 1018.6 |
| 20260905154523 | 20 | 312 | 0.0 | 0.0 | 0.05 | 0.48 | 0.48 | 97 | 1018.6 |
| 20260905153028 | 20 | 313 | 0.0 | 0.0 | 0.08 | 0.46 | 0.46 | 96 | 1018.7 |
| 20260905151520 | 20 | 313 | 0.0 | 0.0 | 0.05 | 0.43 | 0.43 | 96 | 1018.5 |
| 20260905150023 | 20 | 312 | 0.0 | 0.0 | 0.05 | 0.43 | 0.43 | 96 | 1018.2 |
| 20260905144518 | 20 | 313 | 0.0 | 0.0 | 0.05 | 0.43 | 0.43 | 96 | 1017.9 |
| 20260905143023 | 21 | 312 | 0.0 | 0.0 | 0.03 | 0.38 | 0.38 | 95 | 1017.9 |
| 20260905141514 | 21 | 312 | 0.0 | 0.0 | 0.23 | 0.38 | 0.38 | 95 | 1017.6 |
| 20260905140013 | 21 | 313 | 0.0 | 0.0 | 0.33 | 0.38 | 0.38 | 95 | 1017.5 |
| 20260905134523 | 21 | 313 | 0.0 | 0.0 | 0.38 | 0.38 | 0.38 | 93 | 1017.5 |
| 20260905133011 | 21 | 319 | 0.0 | 0.0 | 0.36 | 0.36 | 0.36 | 91 | 1017.5 |
| 20260905131509 | 23 | 315 | 0.0 | 0.0 | 0.15 | 0.15 | 0.15 | 85 | 1017.3 |
| 20260905130005 | 26 | 323 | 0.0 | 0.0 | 0.05 | 0.05 | 0.05 | 78 | 1016.7 |
| 20260905124504 | 27 | 330 | 0.0 | 0.0 | 0.00 | 0.00 | 0.00 | 61 | 1016.4 |
| 20260905123012 | 28 | 327 | 0.0 | 0.0 | 0.00 | 0.00 | 0.00 | 62 | 1016.5 |
| 20260905121501 | 28 | 322 | 0.0 | 0.0 | 0.00 | 0.00 | 0.00 | 60 | 1016.5 |
| 20260905120100 | 27 | 335 | 0.0 | 0.0 | 0.00 | 0.00 | 0.00 | 61 | 1016.5 |
| 20260905114556 | 27 | 329 | 0.0 | 0.0 | 0.00 | 0.00 | 0.00 | 65 | 1016.7 |
| 20260905113055 | 27 | 330 | 0.0 | 0.0 | 0.00 | 0.00 | 0.00 | 68 | 1016.7 |
| 20260905111558 | 27 | 330 | 0.0 | 0.0 | 0.00 | 0.00 | 0.00 | 64 | 1016.7 |
| 20260905110051 | 26 | 318 | 0.0 | 0.0 | 0.00 | 0.00 | 0.00 | 66 | 1016.8 |
| 20260905104547 | 26 | 309 | 0.0 | 0.0 | 0.00 | 0.00 | 0.00 | 70 | 1016.7 |
| 20260905103053 | 25 | 327 | 0.0 | 0.0 | 0.00 | 0.00 | 0.00 | 71 | 1016.5 |
| 20260905101541 | 25 | 319 | 0.0 | 0.0 | 0.00 | 0.00 | 0.00 | 75 | 1016.5 |
| 20260905100050 | 25 | 321 | 0.0 | 0.0 | 0.00 | 0.00 | 0.00 | 74 | 1016.7 |
| 20260905094536 | 24 | 325 | 0.0 | 0.0 | 0.00 | 0.00 | 0.00 | 76 | 1016.6 |
| 20260905093035 | 24 | 323 | 0.0 | 0.0 | 0.00 | 0.00 | 0.00 | 76 | 1016.6 |
| 20260905091541 | 24 | 322 | 0.0 | 0.0 | 0.00 | 0.00 | 0.00 | 78 | 1016.7 |
| 20260905090030 | 23 | 318 | 0.0 | 0.0 | 0.00 | 0.00 | 0.00 | 79 | 1016.8 |
| 20260905084527 | 23 | 324 | 0.0 | 0.0 | 0.00 | 0.00 | 0.00 | 78 | 1016.8 |
| 20260905083026 | 23 | 325 | 0.0 | 0.0 | 0.00 | 0.00 | 0.00 | 77 | 1016.6 |
| 20260905081523 | 23 | 321 | 0.0 | 0.0 | 0.00 | 0.00 | 0.00 | 82 | 1016.4 |
| 20260905080028 | 23 | 321 | 0.0 | 0.0 | 0.00 | 0.00 | 0.00 | 82 | 1016.4 |
| 20260905074518 | 22 | 319 | 0.0 | 0.0 | 0.00 | 0.00 | 0.00 | 83 | 1016.4 |
| 20260905073022 | 21 | 314 | 0.0 | 0.0 | 0.00 | 0.00 | 0.00 | 91 | 1016.3 |
| 20260905071509 | 19 | 311 | 0.0 | 0.0 | 0.00 | 0.00 | 0.00 | 93 | 1016.1 |
| 20260905070005 | 18 | 311 | 0.0 | 0.0 | 0.00 | 0.00 | 0.00 | 93 | 1016.2 |
| 20260905064501 | 18 | 311 | 0.0 | 0.0 | 0.00 | 0.00 | 0.00 | 95 | 1016.2 |
| 20260905063058 | 17 | 311 | 0.0 | 0.0 | 0.00 | 0.00 | 0.00 | 98 | 1016.0 |
| 20260905061558 | 16 | 311 | 0.0 | 0.0 | 0.00 | 0.00 | 0.00 | 100 | 1016.1 |
| 20260905060100 | 15 | 311 | 0.0 | 0.0 | 0.00 | 0.00 | 0.00 | 99 | 1015.9 |
| 20260905054553 | 15 | 311 | 0.0 | 0.0 | 0.00 | 0.00 | 0.00 | 99 | 1016.1 |
| 20260905053044 | 14 | 311 | 0.0 | 0.0 | 0.00 | 0.00 | 0.00 | 99 | 1016.2 |